Location: Capodichino
(40.8833°N, 14.2667°E)
Time: 01:53:42
(UTC+00:00)

Daily predictions for brighter satellites

Satellite Brightness Start Highest point End
(mag) Time Altitude Azimuth Time Altitude Azimuth Time Altitude Azimuth
CENTAUR R/B 3.8 02:02:59 35° NE 02:02:59 35° NE 02:06:52 10° NE
CZ-2C R/B 4.0 02:26:03 10° NNE 02:29:29 32° ENE 02:29:29 32° ENE
Cosmos 2344 3.8 02:37:40 52° NNW 02:37:40 52° NNW 02:44:21 10° NNE
Lacrosse 4 Rocket 4.2 02:42:02 11° NNE 02:42:02 11° NNE 02:42:17 10° NNE
Cosmos 1697 Rocket 4.2 02:35:00 19° N 02:38:15 32° ENE 02:43:18 10° ESE
COSMOS 2406 3.8 02:39:30 54° ENE 02:39:30 54° ENE 02:44:09 10° NNE
USA 238 DEB 4.5 02:41:03 38° N 02:41:03 38° N 02:45:45 10° NNE
USA 238 4.5 02:41:08 39° N 02:41:08 39° N 02:45:51 10° NNE
Lacrosse 5 rocket 3.8 02:50:06 16° NE 02:50:06 16° NE 02:50:56 10° NE
ATLAS 3B R/B 3.4 02:45:39 31° SSE 02:48:21 47° ESE 02:54:38 10° NE
PAYLOAD A 4.3 02:51:23 10° NNE 02:55:43 62° NE 02:55:43 62° NE
USA 234 4.4 02:53:46 10° NE 02:59:07 28° NNW 02:59:22 28° NNW
ADEOS Rocket 2.8 02:54:16 10° SSE 02:59:43 72° ENE 03:05:17 10° N
Cosmos 1980 Rocket 4.1 02:56:13 10° N 03:00:55 27° NE 03:05:35 10° ESE
Cosmos 1302 Rocket 4.0 03:02:45 77° E 03:02:45 77° E 03:07:49 10° SSE
ERS-2 4.0 03:00:54 10° SE 03:04:03 29° ENE 03:04:42 27° NE
Nadezhda 4 Rocket 4.4 02:58:12 10° S 03:04:11 61° E 03:10:13 10° NNE
Cosmos 2180 Rocket 4.3 03:02:41 10° N 03:08:59 86° W 03:15:09 10° S
Cosmos 44 Rocket 3.4 03:14:19 69° S 03:14:19 69° S 03:18:57 10° SSE
H-2A R/B 4.3 03:24:19 10° S 03:24:58 14° S 03:24:58 14° S
Intercosmos 24 4.3 03:26:52 10° N 03:30:31 53° E 03:34:01 10° SSE
CZ-4B R/B 2.3 03:30:58 10° SSE 03:34:20 51° ENE 03:37:09 14° N
Cosmos 1833 Rocket 2.7 03:33:50 47° WSW 03:35:09 59° WNW 03:40:45 10° NNE
Cosmos 220 Rocket 4.3 03:32:31 16° NNW 03:35:57 67° ENE 03:40:20 10° SSE
Cosmos 1300 3.7 03:32:16 10° N 03:35:58 46° E 03:39:38 10° SSE
ALOS 2.5 03:31:41 10° NNE 03:36:22 68° E 03:41:00 10° S
SL-14 R/B 3.3 03:34:29 10° S 03:38:26 82° E 03:42:28 10° N
Cosmos 1626 2.4 03:39:55 54° N 03:39:55 54° N 03:42:52 10° N
Cosmos 1992 Rocket 4.2 03:35:47 10° NNW 03:41:00 69° ENE 03:46:11 10° SSE
NOSS 3-2 (C) 4.4 03:43:22 26° NW 03:43:57 27° NW 03:49:25 10° NNE
Cosmos 2084 3.8 03:42:12 21° SSW 03:44:55 64° ESE 03:49:16 10° NE
METEOR-M 4.4 03:41:21 10° NNE 03:46:42 70° ESE 03:52:00 10° S
deb Chang Zheng 4 3.6 03:43:34 10° NNE 03:47:51 78° ESE 03:52:06 10° S
CENTAUR R/B 3.5 03:50:12 25° NW 03:51:31 27° NW 03:57:28 10° NNE
Cosmos 2058 Rocket 4.2 03:49:37 10° N 03:53:59 47° ENE 03:58:16 10° SSE
Meteor 1-24 Rocket 3.7 03:48:51 10° S 03:54:27 87° WNW 04:00:18 10° N
Cosmos 2369 3.6 03:49:47 10° NNW 03:55:27 73° WSW 04:01:03 10° SSE
SL-19 R/B 4.0 03:52:47 10° NNE 03:55:34 59° ESE 03:58:29 10° S
Cosmos 1656 4.3 03:55:16 32° W 03:55:50 32° WSW 04:00:48 10° SSW
Cosmos 2082 Rocket 2.1 03:52:27 10° SSW 03:58:02 68° WNW 04:03:39 10° NNE
Cosmos 1484 Rocket 2.6 03:54:58 10° N 03:58:47 63° WNW 04:02:30 10° SSW
Cosmos 1461 3.5 03:57:50 36° W 03:58:56 43° NW 04:03:25 10° NNE
Cosmos 1892 Rocket 3.5 03:55:41 10° S 04:00:01 86° E 04:04:24 10° N
Cosmos 2026 Rocket 4.2 03:54:49 10° S 04:01:11 80° E 04:07:35 10° N
Cosmos 2195 Rocket 4.4 03:59:57 10° S 04:06:11 81° W 04:12:23 10° N
USA 290 2.5 04:06:41 42° WNW 04:06:50 42° WNW 04:09:57 10° N
CZ-2C R/B 3.4 04:04:37 10° NNW 04:08:36 25° WNW 04:08:51 25° WNW
SL-16 R/B 4.1 04:04:10 10° N 04:09:01 28° NE 04:13:50 10° ESE
Cosmos 2251 Rocket 3.5 04:03:54 10° SSW 04:09:11 60° WNW 04:14:29 10° NNE
ISS -2.3 04:09:06 23° NNW 04:09:29 23° NNW 04:12:17 10° NE
SKYMED 2 3.7 04:11:21 10° SSE 04:15:40 78° ENE 04:20:01 10° N
PSLV R/B 4.2 04:14:14 10° SSE 04:18:25 72° ENE 04:22:37 10° N
Cosmos 1697 Rocket 3.2 04:17:05 10° NW 04:22:13 36° WSW 04:27:20 10° S
COSMOS 2406 4.4 04:21:37 18° WNW 04:23:19 21° NW 04:27:32 10° N
Meteor 1-31 Rocket 3.1 04:19:43 10° N 04:23:30 44° WNW 04:27:13 10° SW
Cosmos 1455 4.1 04:20:39 10° NNE 04:24:11 33° ENE 04:27:41 10° SE
[s.n.46727] 4.1 04:25:26 20° NW 04:25:55 21° NNW 04:28:06 10° NNE
[s.n.46723] 4.1 04:25:27 20° NW 04:25:59 21° NNW 04:28:15 10° NNE
[s.n.46707] 4.1 04:25:36 20° NW 04:26:05 21° NNW 04:28:17 10° NNE
Meteor 2-5 Rocket 4.3 04:20:57 10° SW 04:26:09 36° WNW 04:31:30 10° N
[s.n.46708] 4.1 04:25:41 20° NW 04:26:11 21° NNW 04:28:23 10° NNE
[s.n.46719] 4.1 04:25:47 20° NW 04:26:16 21° NNW 04:28:28 10° NNE
[s.n.46724] 4.1 04:25:52 20° NW 04:26:21 21° NNW 04:28:33 10° NNE
[s.n.46687] 4.1 04:25:57 20° NW 04:26:27 21° NNW 04:28:39 10° NNE
[s.n.46696] 4.1 04:26:02 20° NW 04:26:33 21° NNW 04:28:44 10° NNE
[s.n.46720] 4.1 04:26:08 20° NW 04:26:38 21° NNW 04:28:49 10° NNE
[s.n.46676] 4.1 04:26:12 20° NW 04:26:43 21° NNW 04:28:55 10° NNE
Lacrosse 5 rocket 2.8 04:25:46 15° NW 04:26:47 17° NNW 04:29:20 10° NNE
[s.n.46721] 4.1 04:26:18 20° NW 04:26:49 21° NNW 04:29:00 10° NNE
[s.n.46728] 4.1 04:26:23 20° NW 04:26:54 21° NNW 04:29:05 10° NNE
[s.n.46690] 4.1 04:26:28 20° NW 04:27:00 21° NNW 04:29:11 10° NNE
[s.n.46694] 4.1 04:26:32 20° NW 04:27:04 21° NNW 04:29:15 10° NNE
[s.n.46702] 4.1 04:26:39 19° NW 04:27:11 21° NNW 04:29:22 10° NNE
[s.n.46679] 4.1 04:26:42 19° NW 04:27:14 21° NNW 04:29:26 10° NNE
[s.n.46704] 4.1 04:26:44 20° NW 04:27:19 21° NNW 04:29:33 10° NNE
[s.n.46712] 4.1 04:26:50 19° NW 04:27:23 21° NNW 04:29:34 10° NNE
[s.n.46711] 4.1 04:26:59 19° NW 04:27:32 21° NNW 04:29:42 10° NNE
[s.n.46684] 4.1 04:27:01 19° NW 04:27:34 21° NNW 04:29:45 10° NNE
[s.n.46706] 4.1 04:27:09 19° NW 04:27:42 20° NNW 04:29:53 10° NNE
[s.n.46678] 4.1 04:27:07 19° NW 04:27:44 21° NNW 04:29:58 10° NNE
[s.n.46677] 4.1 04:27:17 19° NW 04:27:51 20° NNW 04:30:01 10° NNE
[s.n.46671] 4.1 04:27:22 19° NW 04:27:56 20° NNW 04:30:06 10° NNE
[s.n.46675] 4.1 04:27:27 19° NW 04:28:01 20° NNW 04:30:12 10° NNE
[s.n.46674] 4.1 04:27:33 19° NW 04:28:07 20° NNW 04:30:18 10° NNE
[s.n.46698] 4.1 04:27:38 19° NW 04:28:13 20° NNW 04:30:23 10° NNE
CZ-4B R/B 2.9 04:24:12 10° N 04:28:17 76° WNW 04:32:32 10° SSW
[s.n.46699] 4.2 04:27:39 19° NW 04:28:17 21° NNW 04:30:31 10° NNE
[s.n.46715] 4.1 04:27:48 19° NW 04:28:24 20° NNW 04:30:34 10° NNE
[s.n.46714] 4.2 04:27:53 19° NW 04:28:29 20° NNW 04:30:39 10° NNE
[s.n.46726] 4.2 04:27:58 19° NW 04:28:34 20° NNW 04:30:44 10° NNE
[s.n.46703] 4.2 04:28:03 19° NW 04:28:39 20° NNW 04:30:50 10° NNE
[s.n.46713] 4.2 04:28:09 19° NW 04:28:46 20° NNW 04:30:55 10° NNE
[s.n.46717] 4.2 04:28:14 19° NW 04:28:51 20° NNW 04:31:00 10° NNE
[s.n.46691] 4.2 04:28:16 19° NW 04:28:56 20° NNW 04:31:08 10° NNE
[s.n.46693] 4.2 04:28:25 19° NW 04:29:02 20° NNW 04:31:12 10° NNE
[s.n.46672] 4.2 04:28:30 19° NW 04:29:08 20° NNW 04:31:17 10° NNE
[s.n.46701] 4.2 04:28:35 19° NW 04:29:13 20° NNW 04:31:23 10° NNE
[s.n.46685] 4.2 04:28:41 19° NW 04:29:19 20° NNW 04:31:28 10° NNE
[s.n.46709] 4.2 04:28:46 19° NW 04:29:24 20° NNW 04:31:33 10° NNE
[s.n.46683] 4.2 04:28:50 19° NW 04:29:29 20° NNW 04:31:38 10° NNE
[s.n.46695] 4.2 04:28:55 18° NW 04:29:34 20° NNW 04:31:43 10° NNE
[s.n.46688] 4.2 04:29:02 18° NW 04:29:41 20° NNW 04:31:50 10° NNE
[s.n.46729] 4.2 04:29:06 18° NW 04:29:45 20° NNW 04:31:55 10° NNE
[s.n.46697] 4.2 04:29:09 18° NW 04:29:48 20° NNW 04:31:58 10° NNE
[s.n.46725] 4.2 04:29:14 18° NW 04:29:53 20° NNW 04:32:02 10° NNE
[s.n.46682] 4.2 04:29:19 18° NW 04:29:58 20° NNW 04:32:07 10° NNE
[s.n.46680] 4.2 04:29:25 18° NW 04:30:05 20° NNW 04:32:14 10° NNE
[s.n.46718] 4.2 04:29:30 18° NW 04:30:10 20° NNW 04:32:19 10° NNE
[s.n.46710] 4.2 04:29:35 18° NW 04:30:15 20° NNW 04:32:24 10° NNE
[s.n.46673] 4.2 04:29:46 18° NW 04:30:26 20° NNW 04:32:35 10° NNE
[s.n.46700] 4.2 04:29:51 18° NW 04:30:32 20° NNW 04:32:40 10° NNE
[s.n.46705] 4.2 04:29:56 18° NW 04:30:38 20° NNW 04:32:46 10° NNE
[s.n.46692] 4.2 04:30:02 18° NW 04:30:44 20° NNW 04:32:52 10° NNE
FENGYUN 3A 4.1 04:25:48 10° N 04:30:49 39° WNW 04:35:48 10° SW
[s.n.46686] 4.2 04:30:07 18° NW 04:30:49 20° NNW 04:32:57 10° NNE
[s.n.46716] 4.2 04:30:12 18° NW 04:30:54 20° NNW 04:33:02 10° NNE
[s.n.46722] 4.2 04:30:17 18° NW 04:31:00 20° NNW 04:33:08 10° NNE
[s.n.46689] 4.2 04:30:23 18° NW 04:31:06 20° NNW 04:33:14 10° NNE
[s.n.46681] 4.2 04:30:28 18° NW 04:31:11 20° NNW 04:33:19 10° NNE
SAR-Lupe-4 4.2 04:32:23 10° SSW 04:35:40 34° W 04:38:59 10° NNW
ERS-2 3.6 04:35:14 10° SW 04:37:38 17° W 04:39:17 13° WNW
ATLAS 3B R/B 3.2 04:33:09 10° WSW 04:39:09 36° NW 04:45:16 10° NNE
PSLV R/B 4.5 04:36:04 10° NNE 04:40:10 63° E 04:44:14 10° S
Cosmos 2098 Rocket 3.9 04:33:55 10° S 04:40:11 78° E 04:45:10 10° N
Cosmos 1726 Rocket 4.3 04:37:29 10° NNW 04:41:25 31° W 04:45:19 10° SSW
ATLAS CENTAUR R/B 1.9 04:40:38 10° SSW 04:44:31 58° ESE 04:48:16 10° NE
Cosmos 1980 Rocket 2.5 04:39:47 10° NW 04:45:05 45° WSW 04:50:22 10° S
ADEOS Rocket 4.3 04:43:25 10° WSW 04:45:55 13° W 04:48:27 10° WNW
Cosmos 2228 4.3 04:43:14 10° NW 04:46:24 20° W 04:49:35 10° SW
Abrixas rocket 1.7 04:43:59 13° WNW 04:46:29 88° SSW 04:49:19 10° ESE
Envisat 3.9 04:45:05 10° NNE 04:50:05 55° E 04:55:03 10° S
Cosmos 407 Rocket 3.4 04:46:14 10° SSW 04:51:19 75° WNW 04:56:30 10° NNE
Meteor 2-19 Rocket 4.4 04:45:26 10° SSW 04:51:31 76° W 04:57:36 10° N
Cosmos 1140 Rocket 3.5 04:48:55 10° SSW 04:54:02 88° WNW 04:59:12 10° NNE
Aureole 3 4.4 04:51:05 10° NNW 04:55:08 37° W 05:00:10 10° SSW
CZ-3 R/B 3.4 04:38:54 10° W 04:57:05 39° SSW 05:02:59 10° SE
Cosmos 1400 Rocket 4.0 04:54:52 10° NW 04:57:52 21° W 05:00:50 10° SW
COSMO-SKYMED 1 3.4 05:00:01 10° SSW 05:03:50 30° W 05:07:41 10° NW
